Temp
-7 -7 -7 -7 -7 -7 -7 -7 -7 -7 -7 -7 -7 -7 -7 -7 -6 -6 -7 -6 -6 -6 -7 -7 -7 -7 -6 -7 -7 -7 -6 -7 -7 -7 -7 -7 -7 -7 -7 -7 -7 -7 -6
-6 -7 -7 -7 -7 -7 -7 -7 -7 -7 -7 -7 -7 -7 -7 -7 -7 -7 -7 -7 -6 -6 -6 -6 -6 -7 -7 -7 -7 -7 -7 -6 -7 -7 -7 -7 -7 -7 -7 -7 -6 -7 -7
-6 -6 -7 -7 -7 -7 -7 -7 -7 -7 -6 -7 -7 -7 -7 -7 -7 -7 -7 -7 -7 -7 -7 -7 -7 -7 -7 -7 -7 -7 -7 -6 -7 -7 -7 -7 -7 -7 -7 -6 -6 -6 -6
-6 -6 -6 -7 -8 -8 -7 -7 -8 -7 -7 -7 -7 -7 -7 -7 -7 -7 -7 -7 -7 -7 -7 -7 -7 -7 -6 -7 -7 -7 -7 -7 -7 -7 -7 -7 -7 -7 -7 -7 -7 -7 -6
-7 -6 -6 -6 -7 -7 -7 -7 -7 -7 -7 -7 -7 -7 -7 -6 -7 -7 -7 -7 -7 -7 -7 -7 -7 -7 -7 -7 -7 -7 -7 -7 -7 -7 -7 -7 -7 -7 -7 -7 -7 -7 -7
-7 -6 -6 -6 -7 -7 -7 -6 -7 -7 -7 -7 -7 -7 -7 -7 -7 -7 -7 -7 -7 -7 -7 -7 -7 -7 -7 -7 -6 -6 -7 -6 -7 -7 -7 -7 -7 -7 -7 -7 -7 -7 -7
-6 -7 -7 -7 -6 -7 -7 -6 -7 -7 -7 -7 -7 -7 -7 -7 -7 -7 -7 -7 -7 -7 -7 -7 -7 -7 -7 -7 -7 -7 -7 -7 -7 -7 -7 -7 -7 -7 -7 -7 -7 -7 -7
-6 -7 -7 -7 -7 -6 -7 -8 -8 -7 -7 -7 -7 -7 -7 -7 -7 -6 -7 -7 -7 -7 -7 -7 -7 -7 -7 -7 -7 -7 -7 -7 -7 -7 -7 -7 -7 -7 -7 -7 -7 -7 -7
-6 -6 -6 -7 -7 -7 -7 -7 -7 -7 -8 -7 -7 -7 -7 -7 -7 -7 -7 -7 -7 -7 -7 -7 -7 -7 -7 -7 -6 -7 -7 -7 -7 -7 -7 -7 -7 -7 -7 -7 -7 -7 -7
-6 -6 -6 -6 -7 -7 -7 -7 -7 -7 -7 -7 -7 -7 -7 -7 -7 -7 -7 -8 -8 -7 -7 -7 -7 -7 -7 -7 -7 -7 -7 -7 -7 -7 -7 -7 -7 -7 -7 -7 -6 -7 -7
-7 -7 -7 -7 -6 -7 -7 -7 -7 -7 -7 -7 -8 -7 -7 -7 -7 -7 -7 -7 -7 -7 -7 -7 -7 -8 -8 -7 -7 -7 -7 -7 -7 -7 -7 -7 -7 -7 -7 -7 -7 -7 -8
-8 -8 -8 -7 -7 -7 -7 -7 -7 -7 -7 -7 -7 -7 -7 -7 -7 -7 -7 -7 -7 -7 -7 -7 -7 -8 -8 -7 -7 -7 -7 -7 -7 -7 -7 -7 -7 -7 -7 -7 -8 -8 -9
-9 -9 -8 -8 -7 -7 -7 -7 -7 -8 -8 -7 -7 -8 -8 -8 -8 -7 -6 -7 -7 -7 -7 -7 -7 -7 -7 -7 -7 -7 -7 -7 -7 -7 -8 -8 -7 -7 -7 -7 -8 -9 -9
-9 -8 -9 -8 -8 -8 -7 -7 -7 -8 -8 -8 -7 -7 -7 -7 -7 -7 -6 -6 -7 -7 -7 -7 -7 -7 -7 -7 -6 -7 -7 -8 -7 -7 -8 -8 -8 -8 -8 -9 -9 -10 -10
-10 -9 -9 -9 -9 -9 -8 -8 -8 -8 -8 -8 -7 -7 -7 -7 -6 -6 -6 -6 -7 -7 -7 -7 -7 -7 -7 -7 -7 -7 -7 -7 -7 -8 -8 -8 -9 -8 -9 -9 -10 -10 -10
-10 -10 -9 -9 -9 -9 -9 -8 -8 -8 -8 -7 -7 -8 -8 -8 -7 -7 -8 -7 -7 -7 -7 -7 -8 -8 -8 -7 -7 -7 -7 -7 -8 -10 -10 -10 -9 -9 -10 -9 -10 -10 -10
-10 -10 -10 -10 -9 -8 -8 -8 -8 -8 -8 -8 -9 -9 -8 -8 -8 -7 -8 -7 -8 -7 -7 -7 -7 -8 -8 -7 -8 -8 -8 -9 -9 -9 -9 -9 -9 -10 -10 -10 -10 -11 -11
-11 -10 -10 -9 -10 -9 -9 -8 -8 -9 -8 -9 -8 -8 -7 -8 -8 -8 -8 -7 -8 -8 -8 -7 -8 -8 -8 -8 -9 -10 -9 -8 -8 -9 -9 -10 -10 -10 -11 -11 -11 -12 -12
-11 -11 -11 -10 -10 -10 -10 -10 -10 -10 -10 -9 -8 -8 -8 -8 -8 -8 -8 -8 -8 -8 -8 -9 -9 -10 -10 -10 -10 -9 -8 -9 -9 -10 -10 -11 -11 -11 -11 -12 -12 -12 -12
-11 -11 -11 -10 -11 -12 -12 -12 -13 -11 -10 -9 -9 -9 -10 -10 -10 -10 -10 -11 -11 -10 -10 -10 -10 -10 -10 -9 -9 -10 -10 -10 -10 -10 -11 -11 -11 -12 -12 -12 -12 -12 -12
-12 -11 -11 -10 -10 -11 -13 -11 -11 -10 -10 -10 -10 -10 -10 -10 -10 -10 -10 -10 -10 -11 -11 -10 -10 -10 -10 -10 -11 -11 -11 -11 -11 -12 -12 -12 -12 -12 -12 -13 -12 -12 -12
-11 -11 -11 -11 -11 -10 -11 -11 -11 -11 -10 -10 -10 -10 -10 -10 -10 -10 -10 -11 -10 -10 -11 -11 -11 -11 -11 -11 -11 -11 -11 -11 -12 -12 -12 -12 -12 -12 -12 -13 -13 -13 -12
-12 -12 -11 -11 -11 -11 -11 -11 -11 -11 -11 -11 -11 -11 -11 -11 -10 -11 -11 -11 -11 -11 -11 -11 -11 -11 -11 -11 -11 -11 -12 -12 -12 -12 -12 -13 -13 -13 -13 -13 -13 -12 -12
-12 -12 -12 -12 -12 -12 -11 -11 -11 -11 -11 -11 -11 -11 -11 -11 -11 -11 -11 -11 -11 -11 -11 -11 -12 -12 -12 -12 -12 -12 -12 -12 -13 -13 -13 -13 -13 -13 -13 -13 -13 -12 -12
-12 -12 -12 -12 -12 -12 -12 -12 -12 -12 -11 -11 -11 -11 -11 -12 -12 -12 -12 -12 -12 -12 -12 -12 -12 -12 -12 -12 -12 -12 -13 -13 -13 -13 -13 -13 -13 -13 -13 -13 -13 -13 -13
-12 -12 -12 -12 -12 -12 -12 -12 -12 -12 -12 -12 -12 -12 -12 -12 -12 -12 -12 -12 -12 -12 -12 -12 -12 -13 -13 -13 -13 -13 -13 -13 -13 -13 -13 -13 -13 -13 -13 -13 -14 -14 -14
Height
5876 5877 5878 5879 5880 5881 5883 5885 5885 5887 5888 5889 5892 5894 5894 5895 5896 5898 5899 5900 5901 5903 5903 5903 5902 5903 5904 5905 5903 5901 5901 5902 5901 5900 5899 5898 5897 5897 5895 5894 5894 5894 5894
5871 5872 5873 5875 5875 5876 5878 5880 5882 5882 5883 5885 5887 5891 5892 5892 5893 5895 5896 5896 5898 5899 5900 5900 5901 5902 5902 5902 5901 5900 5899 5900 5899 5898 5898 5896 5896 5895 5893 5891 5888 5888 5890
5866 5866 5868 5871 5872 5872 5872 5873 5875 5877 5878 5880 5881 5884 5887 5889 5890 5891 5891 5892 5893 5895 5896 5897 5898 5899 5900 5899 5899 5898 5897 5897 5897 5897 5896 5895 5895 5893 5891 5889 5885 5881 5879
5859 5860 5863 5865 5867 5865 5864 5866 5869 5872 5874 5874 5876 5878 5880 5884 5886 5887 5887 5888 5889 5890 5893 5894 5895 5895 5896 5895 5895 5895 5894 5894 5893 5893 5892 5892 5892 5890 5889 5888 5886 5883 5882
5854 5855 5856 5857 5859 5858 5859 5861 5862 5865 5867 5868 5871 5873 5875 5877 5880 5882 5884 5884 5885 5885 5888 5890 5891 5891 5892 5892 5891 5891 5891 5891 5891 5889 5889 5888 5887 5887 5886 5884 5884 5882 5881
5847 5849 5850 5849 5850 5854 5855 5857 5856 5858 5858 5858 5861 5866 5868 5870 5872 5875 5877 5880 5880 5881 5882 5884 5886 5887 5887 5887 5887 5887 5887 5887 5887 5886 5885 5883 5883 5882 5881 5880 5879 5877 5877
5840 5841 5843 5843 5844 5845 5847 5848 5850 5845 5843 5852 5854 5856 5862 5863 5865 5867 5869 5872 5874 5876 5877 5878 5881 5882 5882 5882 5883 5883 5882 5882 5881 5880 5879 5878 5877 5877 5877 5876 5875 5873 5872
5833 5834 5835 5836 5836 5837 5838 5838 5838 5833 5834 5842 5842 5847 5852 5856 5859 5860 5862 5865 5867 5869 5871 5872 5873 5875 5876 5876 5877 5877 5877 5876 5875 5873 5872 5872 5871 5871 5870 5870 5869 5868 5867
5826 5825 5825 5827 5827 5828 5830 5829 5831 5833 5832 5833 5834 5840 5845 5845 5849 5853 5855 5858 5860 5862 5864 5865 5866 5868 5869 5870 5870 5870 5870 5869 5868 5867 5867 5866 5865 5864 5863 5862 5861 5860 5860
5815 5815 5814 5817 5818 5818 5821 5822 5821 5825 5827 5827 5831 5833 5833 5835 5840 5845 5848 5850 5854 5856 5856 5859 5860 5861 5861 5862 5863 5863 5863 5862 5860 5860 5859 5859 5858 5856 5855 5855 5855 5853 5851
5805 5804 5804 5804 5807 5809 5811 5815 5816 5819 5821 5823 5825 5824 5821 5826 5833 5836 5839 5843 5845 5846 5848 5850 5852 5854 5852 5853 5854 5855 5855 5855 5854 5853 5852 5851 5849 5849 5848 5847 5846 5845 5843
5796 5796 5796 5796 5797 5800 5800 5802 5807 5809 5813 5815 5817 5817 5815 5812 5822 5826 5829 5832 5834 5836 5838 5841 5844 5844 5844 5846 5848 5847 5847 5847 5847 5846 5844 5843 5841 5840 5839 5836 5835 5835 5835
5786 5785 5785 5785 5786 5789 5791 5793 5795 5798 5802 5806 5808 5811 5811 5812 5815 5816 5819 5823 5824 5826 5827 5833 5835 5837 5837 5838 5839 5839 5839 5838 5838 5838 5836 5834 5833 5831 5830 5828 5827 5827 5826
5775 5774 5774 5774 5775 5778 5781 5783 5786 5789 5793 5797 5800 5803 5805 5805 5806 5810 5808 5810 5813 5817 5821 5825 5827 5828 5829 5830 5831 5830 5831 5830 5829 5830 5828 5826 5825 5824 5823 5821 5820 5819 5817
5765 5765 5764 5765 5766 5768 5770 5774 5777 5780 5785 5788 5791 5794 5796 5798 5801 5801 5802 5803 5803 5808 5812 5815 5818 5819 5821 5820 5821 5821 5820 5821 5820 5818 5819 5819 5817 5816 5816 5814 5813 5812 5811
5758 5758 5757 5758 5759 5761 5763 5765 5768 5772 5776 5779 5781 5784 5787 5790 5792 5794 5795 5794 5796 5798 5803 5806 5809 5811 5811 5812 5812 5813 5813 5812 5809 5809 5810 5811 5811 5809 5808 5808 5808 5805 5805
5753 5753 5753 5754 5754 5755 5757 5759 5762 5764 5767 5770 5773 5776 5780 5783 5785 5786 5787 5789 5790 5793 5795 5797 5799 5801 5802 5803 5804 5803 5803 5802 5802 5804 5804 5804 5803 5804 5803 5804 5802 5802 5800
5750 5750 5751 5751 5750 5750 5752 5753 5755 5756 5760 5764 5767 5769 5773 5774 5776 5778 5780 5782 5785 5786 5788 5791 5791 5792 5792 5793 5794 5796 5798 5798 5798 5798 5798 5799 5799 5798 5799 5797 5797 5796 5794
5748 5748 5749 5748 5747 5747 5748 5748 5749 5752 5755 5758 5761 5764 5766 5768 5769 5771 5773 5774 5775 5777 5780 5782 5783 5784 5787 5790 5791 5792 5793 5794 5795 5794 5795 5795 5794 5793 5792 5792 5790 5789 5788
5744 5747 5747 5746 5748 5747 5747 5745 5745 5749 5751 5754 5756 5758 5760 5762 5764 5766 5769 5772 5774 5776 5777 5779 5782 5784 5785 5786 5786 5786 5787 5789 5789 5789 5789 5789 5788 5788 5787 5786 5785 5784 5782
5745 5747 5747 5748 5748 5750 5750 5751 5752 5754 5754 5756 5758 5760 5762 5764 5767 5769 5770 5773 5775 5775 5775 5777 5779 5780 5781 5781 5781 5783 5782 5783 5783 5784 5783 5782 5782 5781 5781 5780 5779 5777 5774
5746 5748 5749 5750 5750 5750 5751 5753 5754 5755 5757 5758 5760 5762 5763 5765 5767 5768 5770 5771 5772 5774 5775 5776 5776 5776 5776 5776 5777 5777 5777 5777 5777 5777 5777 5777 5777 5777 5776 5773 5771 5769 5766
5749 5750 5750 5752 5753 5754 5754 5756 5757 5759 5759 5760 5761 5762 5764 5765 5766 5768 5769 5771 5772 5772 5773 5773 5773 5772 5771 5770 5770 5771 5771 5771 5771 5771 5772 5772 5772 5770 5769 5766 5764 5761 5757
5749 5751 5752 5753 5754 5756 5757 5758 5759 5761 5761 5762 5763 5764 5765 5765 5766 5767 5767 5768 5768 5769 5769 5768 5768 5768 5767 5766 5766 5765 5764 5764 5765 5766 5766 5766 5765 5763 5760 5758 5756 5752 5748
5748 5750 5751 5752 5754 5755 5757 5758 5758 5760 5762 5762 5764 5765 5766 5765 5765 5765 5766 5765 5765 5765 5764 5764 5763 5763 5763 5762 5761 5760 5760 5760 5761 5760 5760 5758 5756 5754 5752 5749 5746 5743 5739
5743 5745 5748 5750 5751 5752 5754 5755 5756 5758 5759 5760 5761 5762 5762 5762 5762 5761 5761 5761 5760 5759 5758 5757 5756 5756 5756 5756 5755 5754 5753 5753 5752 5751 5750 5749 5748 5746 5743 5740 5738 5734 5729
Wind_Speed
15 18 21 20 19 18 19 20 19 18 18 14 14 15 15 10 8 10 12 11 10 12 11 8 8 7 6 8 5 4 6 7 6 6 7 9 9 11 11 13 15 14 12
21 20 24 25 23 22 21 21 20 21 21 18 17 16 15 12 10 12 12 13 12 12 10 10 9 9 7 7 9 6 9 10 8 9 9 10 10 14 16 13 17 20 18
20 24 25 22 24 27 27 25 23 24 23 22 20 19 17 16 16 14 14 13 13 12 11 12 12 9 8 8 9 8 10 11 10 11 11 13 14 17 16 13 15 11 24
26 22 27 29 28 28 31 30 26 26 27 25 24 23 20 20 19 17 16 16 14 13 14 13 13 10 11 12 11 9 13 13 15 14 14 15 16 15 17 16 16 9 2
30 28 27 27 30 30 31 30 30 29 31 28 27 27 25 22 21 20 19 18 16 15 16 16 15 14 14 13 13 12 14 15 16 17 17 16 17 18 18 18 16 12 11
28 32 32 32 30 27 30 29 31 33 33 35 30 31 29 26 25 24 23 21 18 18 17 18 17 16 17 17 16 16 18 19 19 19 19 19 20 21 20 21 17 16 17
28 29 32 36 34 32 25 34 36 38 34 37 37 34 31 30 28 28 27 25 23 22 22 21 21 21 21 22 21 21 21 22 22 21 22 23 21 22 23 23 22 21 21
28 29 32 33 36 35 33 32 38 44 33 46 39 36 36 32 32 31 31 28 27 27 25 23 24 24 25 25 24 24 24 23 23 23 22 24 26 26 24 24 26 25 24
30 29 32 31 33 35 35 36 35 32 34 24 36 37 39 36 35 35 32 32 30 30 28 26 25 25 27 27 26 25 26 27 28 28 30 30 27 27 28 24 24 26 28
28 28 31 31 33 34 35 36 36 34 31 29 32 30 45 40 38 38 33 33 32 32 32 31 29 30 29 30 28 26 25 26 26 27 27 26 30 30 30 29 30 32 33
29 31 32 34 32 34 35 37 37 35 32 30 28 30 28 45 43 39 35 36 36 39 36 33 27 30 34 32 30 29 27 27 26 26 26 28 26 28 30 33 36 35 33
30 32 34 33 35 33 35 35 36 37 32 31 27 27 32 32 27 38 35 39 41 38 36 28 28 30 29 29 30 29 32 35 34 30 29 30 31 31 31 30 31 24 25
31 29 32 34 34 35 34 36 35 36 33 31 28 27 26 26 33 29 39 43 36 32 30 30 29 25 25 29 30 33 32 32 35 32 29 29 31 31 30 28 25 27 26
37 33 29 30 31 31 32 32 36 37 34 32 30 28 28 28 25 28 30 31 36 31 32 33 32 29 28 30 32 31 31 35 31 33 34 30 28 30 31 29 27 26 25
28 25 26 25 24 26 27 29 33 35 29 27 28 28 25 23 19 22 32 29 29 35 32 31 34 31 31 31 30 37 40 39 34 35 29 28 28 29 30 28 26 24 22
22 20 20 22 25 25 24 27 30 27 27 29 28 28 24 24 22 22 22 30 37 27 29 33 35 37 32 35 37 37 38 37 28 21 23 28 30 25 23 20 18 16 18
12 14 18 18 17 17 20 23 26 27 30 29 26 23 22 23 22 20 20 25 23 22 24 32 33 33 36 36 41 36 35 25 19 25 28 22 17 17 16 17 16 18 18
10 9 8 8 10 13 18 20 21 30 29 26 26 26 28 23 24 22 25 26 27 27 28 35 36 36 35 31 27 19 23 26 25 20 17 17 16 15 16 15 16 15 17
12 8 11 7 11 14 15 17 17 16 17 22 25 30 27 28 31 31 30 29 28 30 30 25 17 14 14 13 15 21 23 20 19 16 16 16 16 16 15 14 16 18 20
9 8 7 9 5 4 13 6 9 14 19 20 17 16 15 13 10 8 7 6 7 8 8 9 11 14 17 18 17 17 18 19 19 18 18 17 16 15 15 18 20 21 23
8 6 3 1 8 5 5 4 9 12 12 12 11 11 12 11 10 9 7 6 6 5 5 7 9 12 15 16 17 20 21 21 20 19 17 16 16 18 20 20 21 23 29
9 8 8 8 9 11 11 9 10 10 10 11 10 10 10 9 8 7 6 5 2 1 3 7 10 13 16 17 19 21 21 20 20 18 17 19 21 20 19 19 21 26 29
5 6 7 7 9 11 12 12 11 11 12 11 10 9 7 6 6 6 5 4 4 7 8 8 11 14 16 18 18 19 21 21 20 20 21 21 19 19 19 21 24 29 32
8 8 8 9 12 12 11 10 10 9 9 8 7 8 8 7 6 6 7 7 9 11 12 13 14 15 16 17 19 19 19 20 20 20 21 20 21 21 22 26 29 31 33
11 11 12 13 15 15 13 12 12 11 10 10 9 9 9 8 7 8 9 11 12 13 14 16 17 17 17 19 19 19 21 21 22 22 21 21 22 23 25 29 32 34 36
12 13 14 15 18 16 15 15 13 12 12 10 10 11 12 13 14 15 17 17 19 19 19 20 21 22 21 21 22 23 24 23 24 24 24 24 25 27 30 32 34 37 39
Wind_Direction
230 242 240 228 232 239 244 241 241 242 238 230 231 235 230 228 213 227 225 218 217 213 233 236 247 253 271 286 275 289 292 294 298 310 314 315 310 310 307 296 286 277 265
233 239 236 239 230 228 237 242 241 239 237 231 227 233 232 237 230 238 234 224 227 234 231 247 246 256 263 269 278 285 289 285 290 298 299 306 307 310 309 316 277 262 263
243 242 242 237 238 239 231 232 236 240 236 234 228 227 235 243 239 234 238 233 230 240 244 239 250 245 261 265 268 279 282 288 293 297 301 304 305 312 314 326 3 278 266
250 245 241 248 243 243 240 236 235 240 243 234 236 232 228 233 247 245 239 236 234 238 248 241 244 253 266 270 271 281 286 289 290 293 294 296 299 300 309 321 321 325 307
253 252 250 248 247 245 247 244 244 246 244 242 236 239 236 229 235 244 247 245 239 238 248 256 253 251 265 263 272 280 283 283 282 286 291 290 290 293 298 304 294 285 289
252 251 254 254 256 246 244 250 254 251 249 241 237 237 238 237 236 243 244 245 244 241 242 249 255 256 260 262 266 272 276 278 280 279 283 286 286 291 288 293 285 284 282
254 252 251 254 257 255 246 239 250 251 239 244 239 236 240 244 242 242 245 245 247 246 245 248 255 258 262 264 268 271 275 279 281 280 283 284 283 288 287 291 279 286 290
249 249 250 253 254 255 255 256 258 268 272 247 230 235 239 242 249 246 245 244 247 248 247 249 252 256 261 267 269 272 275 274 277 278 278 283 282 284 290 290 284 281 286
251 254 255 253 254 256 256 260 264 269 278 270 234 237 238 238 244 246 245 245 246 249 250 247 251 258 261 264 271 277 278 276 278 274 279 281 283 279 283 286 286 281 285
265 264 260 255 253 254 254 257 261 266 270 273 270 265 238 235 239 241 240 241 246 251 253 256 257 263 262 270 271 270 278 286 283 278 283 276 287 287 285 280 282 278 285
267 265 264 261 253 249 249 250 255 258 262 267 268 267 273 247 241 239 240 247 241 243 248 260 252 266 269 261 265 269 277 278 283 286 284 282 276 284 283 280 279 276 277
269 265 262 259 255 251 251 252 251 254 254 259 260 265 267 234 245 235 257 248 253 240 241 251 257 274 260 254 265 276 275 275 280 281 281 277 276 287 289 284 277 273 273
278 271 264 259 256 252 249 249 251 252 251 251 256 256 265 265 255 265 257 254 245 253 232 254 257 263 260 254 266 276 275 275 278 275 279 283 282 281 278 278 269 272 276
280 273 266 261 257 252 251 246 243 247 246 243 248 251 254 257 256 245 274 257 247 240 237 247 255 260 265 262 266 265 270 273 265 276 281 280 278 281 285 283 279 279 283
274 269 267 254 246 255 248 244 240 245 246 243 241 244 251 247 238 238 251 246 224 224 237 247 251 259 263 256 265 261 269 267 261 267 269 274 280 282 284 284 286 292 295
265 265 257 256 245 247 250 246 242 236 237 240 239 241 241 236 235 225 239 254 234 242 247 245 247 256 262 251 247 262 264 261 248 256 266 271 277 277 281 288 289 290 294
261 245 244 257 258 239 234 230 227 238 238 233 233 234 229 232 242 248 251 244 250 252 235 233 254 254 256 258 258 256 253 259 271 277 276 271 272 275 281 283 289 294 297
253 246 233 272 258 246 249 240 244 240 226 231 227 224 222 238 238 246 240 239 245 246 239 241 254 253 250 245 245 246 264 268 267 259 255 258 267 273 274 281 285 289 295
243 254 267 274 271 245 249 217 217 201 220 219 228 228 234 237 240 242 238 248 243 235 242 239 231 241 241 244 249 256 259 258 257 257 258 262 266 272 279 282 290 294 294
215 247 261 254 239 249 222 213 178 176 194 196 205 204 198 194 187 174 171 167 179 198 209 224 231 234 247 252 251 252 254 259 261 262 262 264 268 269 275 280 283 291 301
136 162 160 287 200 204 138 139 134 149 153 151 157 152 155 167 178 182 174 173 183 199 226 245 253 257 257 259 258 258 257 256 257 259 261 262 266 272 276 285 299 311 316
153 147 154 151 145 156 157 158 155 148 144 141 142 143 147 153 147 141 139 146 145 298 305 296 285 277 270 268 265 262 261 259 260 260 262 263 267 274 288 300 310 314 319
190 188 181 182 181 171 164 160 155 153 151 152 155 159 171 187 189 193 200 217 271 296 290 297 299 285 275 270 268 265 263 263 263 260 261 264 273 282 293 304 312 316 319
243 245 234 210 185 182 179 182 185 192 191 188 196 201 199 208 220 222 237 261 277 285 287 293 299 300 290 278 270 269 268 264 262 263 267 275 284 295 304 307 309 313 316
238 241 236 216 206 207 211 210 201 207 207 204 207 212 215 219 239 254 263 270 274 277 285 287 287 285 292 290 284 277 275 270 267 270 273 280 290 297 301 306 309 310 314
225 225 223 221 218 224 223 219 218 213 219 230 242 256 267 270 269 274 278 279 279 280 282 286 288 285 282 278 282 278 274 272 271 271 273 279 285 290 297 301 302 306 311